Вернуться в каталог

XINGWANG JISHU SW 10-01

АктивенНаукаVLEO
NORAD 69320·PAYLOAD·🇨🇳 China
Это название спутника еще не подтверждено официальными источниками.

Запущен May 30, 2026 с Xichang Satellite Launch Center

Loading…

Ближайшие Пролёты (ближайшие 24 часа)

TLE

СвежийSource: Space-Track

Эпоха: Sep 14, 2026, 13:12 UTC

1 69320U 26120A   26257.55000021  .00012926  00000-0  61659-3 0  9996
2 69320  55.0120 351.1825 0011054 152.4709 207.6898 15.19406395 16368

Отслеживайте XINGWANG JISHU SW 10-01 в реальном времени с AllMySat

Download on the App Store